Other Surface Observations
Issued by NWS Tucson, AZ

Home | Current Version | Previous Version | Text Only | Print | Product List | Glossary On
Versions: 1 2 3 4 5 6 7 8 9 10 11 12 13 14 15 16 17 18 19 20 21 22 23 24 25 26 27 28 29 30 31 32 33 34 35 36 37 38 39 40 41 42 43 44 45 46 47 48 49 50
000
SXUS55 KTWC 292015
OSOTWC

WEATHER ROUNDUP FOR SOUTHEAST ARIZONA
NATIONAL WEATHER SERVICE TUCSON AZ
115 PM MST FRI JUL 29 2016

AZZ504>506-514-292115-
LOCATION       SKY/WX    TMP DP  RH WIND       PRES   REMARKS
TUCSON         MOSUNNY  100  60  26 NW8       29.92F HX 100
DAVIS-MONTHAN  MOSUNNY   97  62  30 VRB2      29.91F
CHILDRENS PARK N/A      N/A N/A  33 W3                PIMA CO DEQ
ALVERNON/22ND  N/A       95 N/A N/A NW4               PIMA CO DEQ
CHERRY/GLENN   N/A      N/A N/A N/A N/A               PIMA CO DEQ
TANGERINE      N/A       97 N/A N/A W3                PIMA CO DEQ
CONTL RANCH    N/A      N/A N/A N/A N/A               PIMA CO DEQ
GRANT/1ST      N/A       96  61  32 N8                PIMA CO DEQ
CRAYCROFT/22ND N/A       95  63  35 N/A               PIMA CO DEQ
GOLFLINKS/KOLB N/A      N/A N/A N/A N/A               PIMA CO DEQ
AJO/12TH       N/A       96  61  32 SW6               PIMA CO DEQ
SAGUARO EAST   N/A       34  10  37 NW3               PIMA CO DEQ
FAIRGROUNDS    N/A       95 N/A N/A N/A               PIMA CO DEQ
SAGUARO        N/A       96  65  36 NW3               *SABINO CYN
SAN CARLOS     N/A      101  55  22 S6G14             *SAN CARLOS
GREEN VALLEY   N/A       95  59  30 NE6               PIMA CO DEQ
HORSE CAMP CYN N/A       95  58  29 SW6G10            *ARAVAIPA CYN
RINCON MTNS    N/A       79  53  41 E3G10             *NR MANNING CAMP
$$

AZZ509>511-292115-
LOCATION       SKY/WX    TMP DP  RH WIND       PRES   REMARKS
SAFFORD        PTSUNNY   98  53  22 S6        29.93F
STRAY HORSE    N/A       82  47  30 W5G10             *
TRAIL CABIN    N/A       86  53  32 NW5               *N OF GRANVILLE
BLACK HILLS    NOT AVBL
DRY LAKE       N/A       87  49  27 SW4G12            *NATANES MTNS
NOON CREEK     N/A       95  51  23 NE6G10            *PINALENO MTNS
COLUMBINE      N/A       74  47  38 N3                *PINALENO MTNS
GUTHRIE        N/A       88  51  28 SE2G10            *SW OF GUTHRIE
$$

AZZ502-503-513-292115-
LOCATION       SKY/WX    TMP DP  RH WIND       PRES   REMARKS
NOGALES        MOSUNNY   92  64  39 SW5       30.02F
SELLS          N/A      100  64  31 NE5G16            *
SASABE         N/A       95  61  33 NE3G13            *ALTAR VLY
HOPKINS        N/A       86  59  40 S4G12             *SANTA RITA MTNS
CARR CYN       N/A       92  56  30 NE3               *W OF HEREFORD
$$

AZZ507-508-512-292115-
LOCATION       SKY/WX    TMP DP  RH WIND       PRES   REMARKS
SIERRA VISTA   MOSUNNY   95  52  23 VRB3      30.09F
DOUGLAS        MOSUNNY   96  59  29 E8        30.02F
EMPIRE MTNS    NOT AVBL
MULESHOE RANCH N/A       93  60  34 NW7G12            *PRESERVE
HEADQUARTERS   NOT AVBL
$$

.............................NOTES.............................
THIS IS AN AUTOMATED COLLECTIVE WITH MINIMAL QUALITY CONTROL.
PIMA CO DEQ SITES HAVE NONSTANDARD WIND SENSOR HEIGHTS.
PIMA CO DEQ SITES DO NOT REPORT WIND GUSTS.
* INDICATES WIND SENSORS LOCATED AT 20 FEET INSTEAD OF 33 FEET.
..............................KEY..............................
SKY/WX - SKY CONDITION/WEATHER
TMP    - TEMPERATURE IN FAHRENHEIT
DP     - DEWPOINT IN FAHRENHEIT
RH     - RELATIVE HUMIDITY IN PERCENT
WIND   - DIRECTION AND SPEED IN MILES PER HOUR (MPH)
VRB    - VARIABLE WIND DIRECTION
PRES   - MEAN SEA LEVEL PRESSURE IN INCHES OF MERCURY
         F - FALLING PRESSURE   R - RISING PRESSURE
         S - STEADY PRESSURE
VSB    - VISIBILITY IN MILES
HX     - HEAT INDEX IN FAHRENHEIT
WCI    - WIND CHILL INDEX IN FAHRENHEIT
N/A    - NOT AVAILABLE
AFB    - AIR FORCE BASE
         DAVIS-MONTHAN IS DAVIS-MONTHAN AIR FORCE BASE
CYN    - CANYON
MTNS   - MOUNTAINS
NCA    - NATIONAL CONSERVATION AREA
NR     - NEAR
VLY    - VALLEY
CONTL  - CONTINENTAL
PIMA CO DEQ - PIMA COUNTY DEPT OF ENVIRONMENTAL QUALITY



USA.gov is the U.S. government's official web portal to all federal, state and local government web resources and services.